COSMOS 2042

Satellite information

Favourite Embed

Satellite Type and Status

PAYLOADIN ORBIT

Key statistics

Satellite COSMOS 2042 at a glance.

Uptime

13194

Days in orbit

Revolutions

≈ 12.6

Per day

Orbit

LEO

Low Earth Orbit

Inclination

82.6

Latest

Satellite identification and parameters

Extended collection of information and parameters for COSMOS 2042.

Object identification

Identified? True

Debris? False

Object name: COSMOS 2042

International designator: 1989-074E

Object number (NORAD): 20236

Object ID (CCSDS): 20236

Country: COMMONWEALTH OF INDEPENDENT STATES (CIS)

Current information (Y/N): Y

RCS size: LARGE

Orbital parameters

Period: 113.904 minutes

Inclination: 82.5869 deg

SMA: 7783.698 km

Apoapsis: 1408.596 km

Periapsis: 1402.529 km

RAAN: 6.5403 deg

Eccentricy: 0.00038967

Argument of periapsis: 304.4719 deg

Mean anomaly: 210.3002 deg

Mean motion: 12.64223434 rev/day

Mean motion (dot): 0.00000023 rev/day2

B* drag term: 0.000066067009 1/REarth

Two-line elements (TLE)

Creation date: Oct. 28, 2025, 7:11 p.m.

Reference frame: TEME

Reference center: EARTH

Epoch: Oct. 28, 2025, 3:50 p.m. UTC

TLE line 0: 0 COSMOS 2042

TLE line 1: 1 20236U 89074E 25301.65976534 .00000023 00000-0 66067-4 0 9991

TLE line 2: 2 20236 82.5869 6.5403 0003897 304.4719 210.3002 12.64223434782417

Live tracking on map

Real-time ground track for satellite COSMOS 2042.

In-orbit conjunctions

There are no conjunctions computed for COSMOS 2042, at the moment. Check back to stay up to date, as we update our databases every day.

Go to all conjunctions

Associated space launch

Second generation store-dump military communications satellite

COSMOS 2042 was lifted into orbit during the mission ‘Tsiklon-3 | Strela-3 43 to 48’, on board a Tsiklon-3 space rocket.

The launch took place on Sept. 14, 1989, 9:49 a.m. from 32/1.

For more information about the launch, click the button.

Launch to space Tsiklon-3 | Strela-3 43 to 48
Tsiklon-3 | Strela-3 43 to 48

Agency: N/A

Status: Launch Successful

Launch date: Sept. 14, 1989, 9:49 a.m. UTC

Rocket: Tsiklon-3

Launch pad: 32/1

Location: Plesetsk Cosmodrome, Russian Federation

...

Latest news about this satellite

There are no fresh news available about this satellite. Check back as we update our databases every day.


Newsletter sign-up

Weekly statistics, charts and insights to help you stay on top of the space industry.